AKST,Max TemperatureF,Mean TemperatureF,Min TemperatureF,Max Dew PointF,MeanDew PointF,Min DewpointF,Max Humidity, Mean Humidity, Min Humidity, Max Sea Level PressureIn, Mean Sea Level PressureIn, Min Sea Level PressureIn, Max VisibilityMiles, Mean VisibilityMiles, Min VisibilityMiles, Max Wind SpeedMPH, Mean Wind SpeedMPH, Max Gust SpeedMPH,PrecipitationIn, CloudCover, Events, WindDirDegrees
2013-2-1,7,-4,-15,2,-7,-18,91,82,69,30.22,30.13,29.94,10,10,8,8,2,,T,5,Snow,44
2013-2-2,13,5,-4,5,0,-7,91,79,58,29.91,29.71,29.57,10,10,10,10,5,,0.00,4,,35
2013-2-3,15,8,1,6,2,0,84,78,59,29.56,29.44,29.37,10,9,2,9,6,,0.03,7,Snow,38
2013-2-4,14,7,-1,10,5,-3,92,83,71,29.70,29.65,29.50,10,5,1,0,0,,0.11,8,Snow,-1
2013-2-5,5,-6,-18,2,-3,-16,95,85,68,29.72,29.68,29.66,10,5,0,6,0,,T,7,Fog-Snow,171
2013-2-6,4,-3,-11,-1,-5,-15,87,80,69,29.79,29.72,29.65,10,5,2,5,0,,0.04,7,Snow,195
2013-2-7,7,-3,-13,3,-5,-13,87,81,68,29.75,29.50,29.37,10,9,7,8,2,,T,7,Snow,77
2013-2-8,6,0,-6,1,-2,-8,91,80,71,29.88,29.69,29.41,10,5,1,4,1,,0.08,8,Snow,358
2013-2-9,29,9,-11,19,7,-11,92,80,54,29.85,29.45,29.10,10,10,7,10,6,,0.00,4,,28
2013-2-10,28,17,5,23,11,2,95,84,71,30.01,29.23,28.99,10,10,10,10,4,,T,5,Snow,31
2013-2-11,19,7,-5,15,10,-9,95,85,77,29.77,29.68,29.55,10,7,2,7,1,,0.01,7,Fog-Snow,198
2013-2-12,9,-3,-16,6,-9,-18,95,84,67,29.85,29.82,29.77,10,10,7,5,1,,0.00,4,Fog,24
2013-2-13,7,-4,-15,1,-10,-18,88,79,68,29.84,29.82,29.80,10,10,8,4,0,,0.00,4,,180
2013-2-14,20,9,-3,14,4,-7,88,81,69,29.78,29.54,29.39,10,10,8,6,2,,0.00,6,Snow,9
2013-2-15,23,10,-4,14,3,-8,88,77,66,30.10,29.87,29.50,10,7,1,15,5,,0.03,7,Snow,219
2013-2-16,1,-12,-24,-5,-13,-24,86,77,65,30.17,30.10,29.94,10,10,10,7,1,,0.00,5,,45
2013-2-17,-2,-6,-10,-7,-11,-15,83,76,64,30.23,30.00,29.89,10,5,1,10,3,,0.07,8,Snow,234
2013-2-18,-7,-23,-39,-16,-23,-33,95,76,58,30.34,30.29,30.22,10,7,3,7,2,,T,4,Fog-Snow,213
2013-2-19,-5,-24,-43,-16,-22,-30,87,76,67,30.22,29.96,29.66,10,9,3,10,3,,0.00,1,,34
2013-2-20,4,-13,-30,-5,-18,-34,81,69,45,29.64,29.51,29.45,10,9,3,13,6,,0.01,5,Snow,26
2013-2-21,2,-1,-4,-4,-7,-10,76,70,48,29.49,29.44,29.39,10,5,2,12,8,,0.07,8,Snow,23
2013-2-22,-3,-15,-28,-10,-16,-29,90,74,58,29.68,29.59,29.45,10,6,1,8,2,,0.03,7,Snow,200
2013-2-23,5,-5,-15,-5,-11,-20,75,65,45,29.59,29.43,29.36,10,10,10,13,9,,0.00,5,,22
2013-2-24,1,-10,-22,-9,-17,-24,82,73,47,29.76,29.60,29.40,10,10,10,7,2,,0.00,3,,197
2013-2-25,12,-4,-21,0,-14,-23,86,72,49,29.82,29.80,29.76,10,10,10,5,0,,0.00,2,,190
2013-2-26,20,2,-16,3,-9,-20,83,70,44,29.81,29.66,29.52,10,10,10,8,1,,0.00,3,,31
2013-2-27,23,7,-9,10,-1,-14,88,74,46,29.51,29.42,29.36,10,10,10,9,5,,0.00,1,,21
2013-2-28,28,11,-7,11,0,-12,84,72,44,29.52,29.45,29.41,10,10,10,6,2,,0.00,4,,163